Zurück zum Katalog

CZ-3B R/B

AktivHEO
NORAD 59916·ROCKET BODY·🇨🇳 China

Gestartet May 30, 2024 von Xichang Satellite Launch Center

Loading…

Nächste Überflüge (nächste 24 Stunden)

TLE

AktuellSource: Space-Track

Epoche: Sep 14, 2026, 19:05 UTC

1 59916U 24104B   26257.79577019  .00149323  37317-6  25714-2 0  9998
2 59916  26.7092   7.9999 6471182 162.2313 239.9539  3.43337974 24401

Verfolge CZ-3B R/B in Echtzeit mit AllMySat

Download on the App Store